Regional Weather Roundup
Issued by NWS

Home | Current Version | Previous Version | Graphics & Text | Print | Product List | Glossary On
Versions: 1 2 3 4 5 6 7 8 9 10 11 12 13 14 15 16 17 18 19 20 21 22 23 24 25 26 27 28 29 30 31 32 33 34 35 36 37 38 39 40 41 42 43 44 45 46 47 48 49
000
ASUS45 KCYS 041010
RWRWY

WYOMING REGIONAL WEATHER ROUNDUP
NATIONAL WEATHER SERVICE CHEYENNE WY
300 AM MST WED MAR 04 2015

NOTE:  "FAIR" INDICATES FEW OR NO CLOUDS BELOW 12,000 FEET
WITH NO SIGNIFICANT WEATHER AND/OR OBSTRUCTIONS TO VISIBILITY.

WYZ001-041100-
YELLOWSTONE NATIONAL PARK

CITY           SKY/WX    TMP DP  RH WIND       PRES   REMARKS
LK YELLOWSTONE   N/A    -17 -21  82 NW3       29.94R
W YELLOWSTONE  NOT AVBL

$$
WYZ002>013-054>058-071-098>099-041100-
NORTHERN WYOMING

CITY           SKY/WX    TMP DP  RH WIND       PRES   REMARKS
JACKSON        CLOUDY     9   3  78 N3        29.97S
CODY           FAIR       1  -2  85 CALM      30.04S
GREYBULL       FAIR       1  -4  79 SE7       30.13R WCI -12
WORLAND        FAIR       0  -6  76 SE9       30.11R WCI -15
SHERIDAN       FAIR       5  -8  55 NW13      30.09R WCI -12
BUFFALO        FAIR       6 -12  43 N8        30.00S WCI  -7
GILLETTE       FAIR       2  -6  69 W13       30.03S WCI -15
HULETT         PTSUNNY    5   0  78 W6        30.03S WCI  -6
NEWCASTLE      FAIR       5  -4  66 N7        30.05F WCI  -7

$$
WYZ014>020-022>026-101>103-041100-
CENTRAL WYOMING

CITY           SKY/WX    TMP DP  RH WIND       PRES   REMARKS
BIG PINEY      MOCLDY     7   0  73 S3        29.93R
PINEDALE       FAIR      -4  -9  77 N5        29.93R WCI -15
DUBOIS         CLOUDY    -6  -8  92 NW9       29.91F WCI -22
LANDER         FAIR       0  -6  76 CALM      30.02S
RIVERTON       FAIR      -5 -10  79 MISG      30.03S
CASPER         FAIR      -8 -12  83 W9        30.04S WCI -25
DOUGLAS        FAIR      -2  -6  83 NW10      30.06F WCI -19

$$
WYZ021-027>030-104>119-041100-
SOUTHERN WYOMING

CITY           SKY/WX    TMP DP  RH WIND       PRES   REMARKS
EVANSTON       MOCLDY    10   6  84 SW10      29.94R WCI  -4
FORT BRIDGER   CLOUDY    17  13  83 W15       29.95S WCI   3
ROCK SPRINGS   CLOUDY    -1  -5  82 E10       29.97R FOG     WCI -17
DIXON          FAIR       7   4  85 CALM      29.99R
RAWLINS        FAIR     -10 -15  78 NW6       29.95S WCI -23
SARATOGA       CLOUDY     3   0  85 W7        29.95R WCI  -9
LARAMIE        CLOUDY     0  -4  83 NW5       29.88F WCI -10
CHEYENNE       CLOUDY     4  -1  80 N6        29.94S WCI  -7
TORRINGTON     CLOUDY     7   2  80 NW12      30.07S WCI  -8
PINE BLUFFS    PTSUNNY    5   3  92 NW3       30.02S

$$



USA.gov is the U.S. government's official web portal to all federal, state and local government web resources and services.